Location: Kamms Corner
(44.7255°N, 108.9326°W)
Time: 16:54:24
(UTC+00:00)

N. Korean satellite - Pass Details

Date: 27 January 2022
Orbit: 438 x 478 km, 97.3° (Epoch: 21 May)

Event Time Altitude Azimuth Distance (km) Brightness Sun altitude
Rises 13:05:23 0° 4° (N) 2,636 10.2 -16.8°
Reaches altitude 10° 13:07:35 10° 356° (N) 1,746 9.2 -16.5°
Maximum altitude 13:11:04 37° 289° (WNW) 817 7.1 -15.8°
Drops below altitude 10° 13:14:30 10° 221° (SW) 1,724 9.1 -15.2°
Sets 13:16:40 0° 213° (SSW) 2,598 10.0 -14.9°
